Weather in Plysky

Ukraine / Chernihiv Region     51°06′33″N   32°26′06″E
temp.,
°C
wind,
m/s
gust,
m/s
humid.,
%
clouds,
%
prec.,
mm/h
press.,
hPa
HPBL,
m
14 april, wed
wed1400:00+8sse37886 0.0 1019156
03:00+8sse3690100 0.0 1018150
06:00+8se3790100 0.0 1018191
09:00+9sse3786100 0.0 1018358
12:00+12sse4565100 0.0 1017800
15:00+15sse3454100 0.1 10151459
18:00+14sse3466100 0.6 1015335
21:00+11sse2281100 1.3 101542
15 april, thu
thu1500:00+10s1284100 0.1 101416
03:00+9ene1286100 0.1 101412
06:00+9e2396100 1.4 101374
09:00+9e2393100 3.4 1013134
12:00+11ssw127839 0.4 1012487
15:00+14ssw2361100 0.6 10111031
18:00+13s246479 0.9 1011537
21:00+10ssw358586 1.2 1011153
16 april, fri
fri1600:00+9ese1291100 0.5 1011136
03:00+9ese4793100 3.1 1010440
06:00+8se6109083 4.9 1011557
09:00+8se5989100 5.1 1012611
12:00+8se5888100 0.3 1014714
15:00+10se577280 0.4 10141095
18:00+9se588392 0.0 1015610
21:00+8se4790100 0.0 1016362
17 april, sat
sat1700:00+7se3693100 0.1 1017325
03:00+6sse359397 0.1 1018181
06:00+7sse1291100 0.0 101955
09:00+9ese1273100 0.0 1020398
12:00+12n1156100 0.0 10201222
15:00+13n2355100 0.0 10201313
18:00+11n4579100 0.4 1020431
21:00+10nw588782 0.4 1019374
18 april, sun
sun1800:00+9nnw599697 0.2 1019351
03:00+7ne5991100 0.2 1019492
06:00+8ene51088100 0.1 1020573
09:00+8ene687998 0.1 1021971
12:00+10e7968100 0.0 10221151
15:00+12ese68606 0.0 10231184
18:00+13e686018 0.0 10231093
21:00+9e38797 0.0 1024169